[[{"header":{"parameterUnit":"m.s-1","parameterCategory":1,"la1":30.2991,"la2":30.254,"lo1":-89.0895,"lo2":-89.0444,"dy":0.0017,"dx":0.0017,"nx":28,"ny":28,"refTime":"2024-10-04T21:00:00:Z","depth":0,"parameterNumber":2,"parameterNumberName":"U-component_of_WINDS"},"data":[0,0,0,0,0,0,0,0,0,0,0,0,0,0,0,0,0,0,0,0,0,0,0,0,0,0,0,0,0,0,0,0,0,0,0,0,0,0,0,0,0,0,0,0,0,0,0,0,0,0,0,0,0,0,0,0,0,0,-5.2749,-5.2749,0,-5.2727,-5.2727,-5.2727,-5.2565,-5.2561,-5.2557,-5.2553,-5.2531,-5.2534,-5.2537,0,0,0,0,0,0,0,0,0,0,0,0,0,-5.2651,-5.2654,-5.2749,-5.2749,-5.2748,-5.2727,-5.2727,-5.2727,-5.2565,-5.256,-5.2556,-5.2551,-5.253,-5.2534,-5.2538,0,0,0,0,0,0,0,0,0,0,0,0,0,-5.2668,-5.2654,-5.2749,-5.2665,-5.2658,-5.2727,-5.2727,-5.2726,-5.2566,-5.256,-5.2554,-5.2549,-5.2529,-5.2533,-5.2538,-5.2686,0,0,-5.2552,-5.2554,0,0,0,0,0,0,0,0,-5.2667,-5.2672,-5.2678,-5.2671,-5.2663,-5.2642,-5.2684,-5.2713,-5.2568,-5.2601,-5.2553,-5.2546,-5.2573,-5.2574,-5.2583,-5.2685,-5.2684,-5.2553,-5.2556,-5.2558,-5.2559,0,0,0,0,0,0,0,-5.2666,-5.2672,-5.274,-5.2678,-5.2669,-5.2629,-5.2625,-5.2689,-5.2621,-5.2598,-5.2586,-5.2586,-5.2568,-5.2579,-5.2581,-5.2684,-5.2553,-5.2557,-5.256,-5.2562,-5.2908,-5.2914,0,0,0,0,0,0,-5.2677,-5.2672,-5.2741,-5.274,-5.265,-5.2636,-5.2631,-5.2655,-5.262,-5.2608,-5.2591,-5.2578,-5.2574,-5.2576,-5.258,-5.2751,-5.2558,-5.2562,-5.2565,-5.2902,-5.2909,-5.2916,0,0,0,0,0,0,-5.2675,-5.2684,-5.2742,-5.2702,-5.2707,-5.2644,-5.2672,-5.2658,-5.2668,-5.2614,-5.2601,-5.2614,-5.2569,-5.2573,-5.2661,-5.2748,-5.2564,-5.2568,-5.2894,-5.2904,-5.2913,-5.3096,0,0,0,0,0,0,-5.2673,-5.2685,-5.274,-5.2705,-5.2709,-5.2824,-5.2677,-5.2662,-5.2677,-5.266,-5.2633,-5.2623,-5.2565,-5.2655,-5.2666,-5.2751,-5.2572,-5.2886,-5.2898,-5.291,-5.3082,-5.3111,-5.3136,0,0,0,0,0,-5.267,-5.2793,-5.2744,-5.2753,-5.2778,-5.2829,-5.2832,-5.2762,-5.2685,-5.274,-5.2705,-5.2624,-5.2737,-5.2665,-5.2676,-5.2765,-5.288,-5.2895,-5.2909,-5.307,-5.3105,-5.3135,0,0,0,0,0,0,-5.284,-5.2787,-5.2732,-5.2847,-5.2844,-5.2802,-5.287,-5.2802,-5.2821,-5.2804,-5.2717,-5.2712,-5.2814,-5.2798,-5.2719,-5.2907,-5.2795,-5.2812,-5.2914,-5.2947,-5.2973,-5.2975,-5.2576,0,0,0,0,0,-5.2891,-5.2938,-5.2888,-5.2994,-5.2996,-5.2934,-5.2954,-5.29,-5.2894,-5.2892,-5.2863,-5.286,-5.2895,-5.292,-5.2948,-5.3079,-5.3071,-5.3145,-5.3172,-5.3194,-5.321,-5.3279,-5.3311,-5.2963,-5.2963,-5.2963,0,0,-5.2997,-5.2973,-5.3008,-5.3028,-5.3019,-5.307,-5.2934,-5.2992,-5.3029,-5.29,-5.2982,-5.2962,-5.2952,-5.3063,-5.311,-5.3052,-5.3305,-5.3212,-5.3231,-5.3234,-5.3297,-5.333,-5.3359,-5.2973,-5.2971,-5.297,0,0,-5.3215,-5.3202,-5.3289,-5.3284,-5.3272,-5.323,-5.3252,-5.322,-5.3201,-5.3282,-5.3187,-5.3229,-5.3291,-5.3288,-5.3295,-5.3514,-5.344,-5.3526,-5.3665,-5.3733,-5.3761,-5.3785,-5.3863,-5.3892,-5.3542,-5.3542,-5.3542,0,-5.3348,-5.342,-5.3343,-5.3408,-5.342,-5.3306,-5.3394,-5.3392,-5.3392,-5.3403,-5.3338,-5.3414,-5.3399,-5.3508,-5.3561,-5.357,-5.3592,-5.3528,-5.3763,-5.3786,-5.3807,-5.3881,-5.3911,-5.3553,-5.3551,-5.355,-5.3549,0,-5.3584,-5.3635,-5.3707,-5.3709,-5.3729,-5.3806,-5.3741,-5.377,-5.3716,-5.3681,-5.3765,-5.3743,-5.3767,-5.3788,-5.3735,-5.389,-5.3854,-5.3778,-5.3664,-5.3852,-5.392,-5.3948,-5.3568,-5.3564,-5.3561,-5.3558,0,0,-5.3908,-5.3868,-5.3895,-5.3895,-5.3875,-5.3913,-5.3985,-5.4007,-5.4035,-5.4038,-5.4096,-5.4152,-5.4081,-5.4089,-5.4035,-5.4094,-5.427,-5.401,-5.4009,-5.406,-5.444,-5.4498,-5.4532,-5.422,-5.4226,-5.423,-5.4441,0,-5.4119,-5.4238,-5.4172,-5.4301,-5.4348,-5.4241,-5.4303,-5.4298,-5.4267,-5.4303,-5.4268,-5.4309,-5.4212,-5.4217,-5.4271,-5.4237,-5.4345,-5.4221,-5.4274,-5.4277,-5.4281,-5.4568,-5.4629,-5.483,-5.4467,-5.4471,-5.4475,0,-5.438,-5.4395,-5.453,-5.4501,-5.4518,-5.4575,-5.4591,-5.4626,-5.4618,-5.4591,-5.4601,-5.4533,-5.4601,-5.4488,-5.4582,-5.4499,-5.4517,-5.4504,-5.451,-5.4513,-5.4388,-5.4579,-5.4892,-5.4923,-5.4516,-5.4512,-5.4509,0,-5.4604,-5.4658,-5.4745,-5.4749,-5.4717,-5.476,-5.4749,-5.4735,-5.4753,-5.4767,-5.4778,-5.48,-5.4812,-5.4831,-5.477,-5.4694,-5.4873,-5.4754,-5.4853,-5.4855,-5.4896,-5.4894,-5.5217,-5.4907,-5.4907,-5.4906,-5.4906,0,-5.4846,-5.4933,-5.4846,-5.49,-5.4994,-5.4916,-5.5012,-5.4989,-5.4978,-5.5025,-5.4934,-5.4981,-5.4898,-5.4936,-5.4889,-5.4975,-5.4981,-5.4962,-5.4948,-5.4971,-5.4973,-5.4981,-5.4966,-5.4914,-5.4912,-5.4911,-5.491,0,-5.5113,-5.5058,-5.5147,-5.511,-5.5102,-5.5174,-5.5142,-5.5191,-5.5154,-5.5216,-5.5226,-5.5168,-5.5209,-5.5151,-5.5185,-5.5154,-5.5272,-5.5237,-5.5275,-5.5265,-5.5367,-5.5359,-5.5707,-5.5749,-5.5412,-5.5415,-5.5418,0,-5.5272,-5.5336,-5.5306,-5.5332,-5.5326,-5.5368,-5.5386,-5.5313,-5.5335,-5.5331,-5.5381,-5.5414,-5.5437,-5.5508,-5.5469,-5.5496,-5.5461,-5.5581,-5.5465,-5.5485,-5.5464,-5.5461,-5.5468,-5.5606,-5.561,-5.5613,-5.5616,0,-5.5559,-5.5529,-5.5558,-5.558,-5.5604,-5.5617,-5.5622,-5.5649,-5.5571,-5.5602,-5.5642,-5.566,-5.5696,-5.5731,-5.5747,-5.5735,-5.5664,-5.5653,-5.5677,-5.5701,-5.572,-5.5712,-5.5341,-5.5645,-5.5642,-5.564,-5.5638,-5.5637,-5.5777,-5.5829,-5.5816,-5.5853,-5.585,-5.5858,-5.5902,-5.5871,-5.5903,-5.5927,-5.5881,-5.5934,-5.5924,-5.5939,-5.5936,-5.5976,-5.5924,-5.5959,-5.5968,-5.5978,-5.5995,-5.5714,-5.5979,-5.5978,-5.5977,-5.5976,-5.5976,0,-5.606,-5.6046,-5.6081,-5.6092,-5.6121,-5.605,-5.6054,-5.6083,-5.613,-5.6127,-5.6152,-5.6199,-5.6233,-5.6197,-5.6224,-5.6263,-5.6231,-5.6273,-5.627,-5.6269,-5.6039,-5.6016,-5.6299,-5.6299,-5.6299,-5.6299,-5.6299,-5.6298,-5.6211,-5.6296,-5.6264,-5.6347,-5.6333,-5.6384,-5.6392,-5.6399,-5.6396,-5.6454,-5.6481,-5.6457,-5.6442,-5.6467,-5.6495,-5.6483,-5.6498,-5.6552,-5.6529,-5.6316,-5.6285,-5.6254,-5.6232,-5.6555,-5.6556,-5.6755,-5.6757,-5.6758]},{"header":{"parameterUnit":"m.s-1","parameterCategory":1,"la1":30.2991,"la2":30.254,"lo1":-89.0895,"lo2":-89.0444,"dy":0.0017,"dx":0.0017,"nx":28,"ny":28,"refTime":"2024-10-04T21:00:00:Z","depth":0,"parameterNumber":3,"parameterNumberName":"V-component_of_WINDS"},"data":[0,0,0,0,0,0,0,0,0,0,0,0,0,0,0,0,0,0,0,0,0,0,0,0,0,0,0,0,0,0,0,0,0,0,0,0,0,0,0,0,0,0,0,0,0,0,0,0,0,0,0,0,0,0,0,0,0,0,0.4041,0.4041,0,0.405,0.405,0.405,0.4115,0.4117,0.4118,0.412,0.4128,0.4127,0.4125,0,0,0,0,0,0,0,0,0,0,0,0,0,0.4079,0.4078,0.4041,0.4041,0.4041,0.405,0.405,0.405,0.4115,0.4117,0.4119,0.412,0.4128,0.4127,0.4125,0,0,0,0,0,0,0,0,0,0,0,0,0,0.4072,0.4077,0.4041,0.4074,0.4078,0.405,0.405,0.405,0.4114,0.4117,0.4119,0.4121,0.4129,0.4127,0.4125,0.4065,0,0,0.4119,0.4118,0,0,0,0,0,0,0,0,0.4073,0.4071,0.4069,0.4072,0.4076,0.4084,0.4066,0.4055,0.4114,0.41,0.412,0.4123,0.4111,0.4111,0.4107,0.4066,0.4066,0.4119,0.4118,0.4117,0.4116,0,0,0,0,0,0,0,0.4073,0.4071,0.4045,0.4069,0.4073,0.4089,0.4091,0.4065,0.4092,0.4102,0.4106,0.4107,0.4113,0.4109,0.4108,0.4066,0.4119,0.4117,0.4116,0.4115,0.3976,0.3973,0,0,0,0,0,0,0.4069,0.4071,0.4044,0.4045,0.408,0.4086,0.4088,0.4079,0.4093,0.4097,0.4105,0.411,0.4111,0.411,0.4108,0.4039,0.4117,0.4115,0.4114,0.3978,0.3975,0.3972,0,0,0,0,0,0,0.4069,0.4066,0.4044,0.4059,0.4058,0.4083,0.4072,0.4078,0.4073,0.4095,0.41,0.4095,0.4113,0.4111,0.4076,0.404,0.4114,0.4113,0.3981,0.3977,0.3974,0.3899,0,0,0,0,0,0,0.407,0.4066,0.4043,0.4058,0.4056,0.4011,0.407,0.4076,0.407,0.4077,0.4087,0.4091,0.4115,0.4078,0.4074,0.4039,0.4111,0.3985,0.398,0.3975,0.3905,0.3893,0.3883,0,0,0,0,0,0.4071,0.4022,0.4042,0.4038,0.4029,0.4009,0.4008,0.4036,0.4067,0.4045,0.4058,0.4091,0.4045,0.4074,0.4069,0.4033,0.3987,0.3981,0.3975,0.3909,0.3895,0.3883,0,0,0,0,0,0,0.4002,0.4024,0.4047,0.4001,0.4002,0.402,0.3992,0.402,0.4012,0.4018,0.4054,0.4055,0.4014,0.4021,0.4052,0.3976,0.4022,0.4015,0.3973,0.396,0.3949,0.3947,0.411,0,0,0,0,0,0.3981,0.3963,0.3984,0.3941,0.3941,0.3966,0.3958,0.398,0.3983,0.3983,0.3995,0.3996,0.3982,0.3971,0.396,0.3907,0.3909,0.388,0.3869,0.386,0.3853,0.3824,0.3811,0.3953,0.3953,0.3954,0,0,0.3938,0.3949,0.3935,0.3927,0.3931,0.3911,0.3966,0.3943,0.3928,0.398,0.3946,0.3955,0.3959,0.3914,0.3894,0.3918,0.3814,0.3852,0.3845,0.3843,0.3817,0.3803,0.3791,0.3949,0.395,0.3951,0,0,0.3849,0.3856,0.382,0.3823,0.3828,0.3845,0.3837,0.385,0.3858,0.3825,0.3863,0.3846,0.3821,0.3822,0.3819,0.3731,0.376,0.3726,0.3669,0.364,0.3629,0.3619,0.3586,0.3574,0.3719,0.3719,0.3719,0,0.3795,0.3766,0.3799,0.3772,0.3767,0.3815,0.3778,0.378,0.378,0.3775,0.3802,0.3771,0.3777,0.3732,0.3711,0.3708,0.3698,0.3724,0.3628,0.3618,0.361,0.3578,0.3566,0.3715,0.3715,0.3716,0.3716,0,0.3698,0.3678,0.3649,0.3648,0.364,0.3609,0.3637,0.3625,0.3647,0.3662,0.3628,0.3637,0.3627,0.3618,0.364,0.3576,0.3591,0.3622,0.3668,0.3591,0.3562,0.3551,0.3709,0.371,0.3712,0.3713,0,0,0.3564,0.3582,0.3571,0.3571,0.358,0.3565,0.3536,0.3527,0.3515,0.3515,0.349,0.3469,0.3498,0.3494,0.3517,0.3492,0.3419,0.3527,0.3527,0.3505,0.3348,0.3323,0.3308,0.344,0.3438,0.3436,0.3347,0,0.3477,0.3428,0.3457,0.3404,0.3385,0.343,0.3404,0.3407,0.342,0.3405,0.342,0.3403,0.3443,0.3441,0.3419,0.3433,0.3388,0.344,0.3416,0.3415,0.3411,0.3294,0.3267,0.3182,0.3336,0.3334,0.3333,0,0.3368,0.3363,0.3308,0.3321,0.3314,0.329,0.3284,0.327,0.3274,0.3285,0.3281,0.331,0.3282,0.3329,0.329,0.3324,0.3317,0.3322,0.3319,0.3316,0.3368,0.3285,0.3156,0.3143,0.3316,0.3317,0.3319,0,0.3274,0.3253,0.3217,0.3216,0.323,0.3213,0.3218,0.3224,0.3217,0.3211,0.3207,0.3198,0.3193,0.3185,0.321,0.3243,0.3167,0.3217,0.3175,0.3174,0.3155,0.3155,0.302,0.3153,0.3154,0.3154,0.3154,0,0.3172,0.3136,0.3174,0.3152,0.3113,0.3147,0.3107,0.3117,0.3122,0.3102,0.3141,0.3121,0.3157,0.3141,0.316,0.3124,0.3122,0.3129,0.3135,0.3125,0.3123,0.3118,0.3124,0.315,0.3151,0.3152,0.3152,0,0.3059,0.3083,0.3047,0.3064,0.3067,0.3037,0.3051,0.3031,0.3047,0.3021,0.3017,0.3042,0.3025,0.305,0.3035,0.3049,0.2998,0.3014,0.2996,0.3,0.2955,0.2958,0.2811,0.2792,0.2939,0.2938,0.2936,0,0.2991,0.2965,0.2979,0.2968,0.2971,0.2954,0.2947,0.2979,0.2969,0.2972,0.2951,0.2937,0.2928,0.2898,0.2914,0.2903,0.2917,0.2866,0.2916,0.2906,0.2914,0.2914,0.2911,0.2855,0.2854,0.2852,0.2851,0,0.2868,0.2882,0.287,0.2862,0.2852,0.2847,0.2846,0.2835,0.2869,0.2856,0.2839,0.2832,0.2817,0.2802,0.2795,0.28,0.283,0.2836,0.2825,0.2813,0.2803,0.2806,0.2966,0.2838,0.284,0.2841,0.2841,0.2842,0.2775,0.2753,0.2759,0.2744,0.2747,0.2744,0.2725,0.2739,0.2726,0.2716,0.2736,0.2714,0.2718,0.2712,0.2714,0.2697,0.2719,0.2704,0.2699,0.2694,0.2687,0.2808,0.2696,0.2696,0.2697,0.2697,0.2697,0,0.2652,0.2659,0.2645,0.2641,0.2629,0.266,0.266,0.2647,0.2627,0.2629,0.2619,0.2599,0.2585,0.2601,0.2589,0.2572,0.2586,0.2568,0.2568,0.2568,0.2669,0.2678,0.2557,0.2557,0.2557,0.2557,0.2557,0.2557,0.2587,0.2551,0.2565,0.253,0.2537,0.2516,0.2513,0.251,0.2512,0.2487,0.2476,0.2487,0.2494,0.2483,0.2471,0.2476,0.2469,0.2446,0.2455,0.2548,0.2562,0.2575,0.2584,0.2445,0.2445,0.2357,0.2356,0.2355]}]]